This demonstration page uses our WeatherBlox Daily Observations layout. Learn more.

Left ArrowRight Arrow

39.51506, -84.39828

Hourly Observations for October 19, 2018

Temp ( °F °C ) Dew Point ( °F °C ) Humidity (%) Winds ( mph kmh ) Pressure ( in mb ) Visibility ( mi km ) Precip ( " mm )
12:15 am 00:15 Clear 35 1.5 34 1.3 99 99 Calm 30.45 1031 10 16.0934 0 0
12:35 am 00:35 Clear 35 1.7 34 1.2 97 97 Calm 30.42 1030 10 16.0934 0 0
12:55 am 00:55 Clear 35 1.4 34 1 97 97 Calm 30.42 1030 10 16.0934 0 0
1:15 am 01:15 Clear 34 1.1 33 0.8 98 98 Calm 30.42 1030 10 16.0934 0 0
1:35 am 01:35 Clear 34 1.1 33 0.7 97 97 Calm 30.42 1030 10 16.0934 0 0
1:55 am 01:55 Clear 34 0.9 33 0.5 97 97 Calm 30.42 1030 10 16.0934 0 0
2:15 am 02:15 Mostly Cloudy with Mist and Fog 33 0.7 33 0.5 99 99 Calm 30.42 1030 2.5 4.02335 0 0
2:35 am 02:35 Mostly Cloudy with Fog 33 0.7 33 0.6 99 99 Calm 30.42 1030 0.5 0.80467 0 0
2:55 am 02:55 Clear 33 0.3 32 0.1 99 99 Calm 30.42 1030 7 11.26538 0 0
3:15 am 03:15 Clear 33 0.4 33 0.3 99 99 Calm 30.39 1029 7 11.26538 0 0
3:35 am 03:35 Clear 33 0.3 32 0.1 99 99 Calm 30.39 1029 7 11.26538 0 0
3:55 am 03:55 Cloudy 32 0 32 -0.2 99 99 Calm 30.39 1029 10 16.0934 0 0
4:15 am 04:15 Cloudy with Fog 32 0 32 -0.2 99 99 Calm 30.39 1029 0.25 0.402335 0 0
4:35 am 04:35 Cloudy with Fog 32 -0.1 31 -0.3 99 99 Calm 30.39 1029 0.25 0.402335 0 0
4:55 am 04:55 Cloudy with Fog 32 -0.1 32 -0.2 99 99 Calm 30.39 1029 0.5 0.80467 0 0
5:15 am 05:15 Clear with Mist and Fog 31 -0.3 31 -0.4 99 99 Calm 30.39 1029 5 8.0467 0 0
5:35 am 05:35 Clear with Mist and Fog 32 0.1 32 0 99 99 Calm 30.36 1028 2 3.21868 0 0
5:55 am 05:55 Cloudy with Fog 32 0.1 32 0 99 99 Calm 30.36 1028 0.25 0.402335 0 0
6:15 am 06:15 Mostly Cloudy with Mist and Fog 31 -0.3 31 -0.4 99 99 Calm 30.39 1029 7 11.26538 0 0
6:35 am 06:35 Mostly Cloudy with Fog 33 0.5 33 0.4 99 99 Calm 30.36 1028 0.25 0.402335 0 0
6:55 am 06:55 Mostly Cloudy with Fog 32 0.2 32 0.1 99 99 Calm 30.36 1028 0.25 0.402335 0 0
7:15 am 07:15 Clear with Mist and Fog 33 0.5 33 0.4 99 99 Calm 30.36 1028 4 6.43736 0 0
7:35 am 07:35 Mostly Cloudy with Mist and Fog 33 0.8 33 0.7 99 99 Calm 30.36 1028 1.75 2.816345 0 0
7:55 am 07:55 Sunny with Mist and Fog 33 0.6 33 0.5 99 99 Calm 30.36 1028 3.5 5.63269 0 0
8:15 am 08:15 Sunny with Mist and Fog 33 0.7 33 0.6 99 99 Calm 30.33 1027 4 6.43736 0 0
8:35 am 08:35 Sunny with Mist and Fog 33 0.7 33 0.6 99 99 Calm 30.33 1027 5 8.0467 0 0
8:55 am 08:55 Sunny with Mist and Fog 35 1.6 35 1.4 99 99 Calm 30.33 1027 4 6.43736 0 0
9:15 am 09:15 Sunny 37 2.8 36 2.3 97 97 Calm 30.33 1027 7 11.26538 0 0
9:35 am 09:35 Sunny with Mist and Fog 39 3.9 38 3.2 95 95 Calm 30.33 1027 7 11.26538 0 0
9:55 am 09:55 Sunny 41 5 38 3.1 88 88 Calm 30.33 1027 10 16.0934 0 0
10:15 am 10:15 Sunny 44 6.8 38 3.2 78 78 SSW 7 11 30.27 1025 10 16.0934 0 0
10:35 am 10:35 Sunny 45 7.4 38 3.5 77 77 SW 6 9 30.27 1025 10 16.0934 0 0
10:55 am 10:55 Sunny 47 8.6 38 3.6 71 71 SSW 7 11 30.27 1025 10 16.0934 0 0
11:15 am 11:15 Sunny 51 10.7 37 2.7 58 58 SSW 12 19 30.24 1024 10 16.0934 0 0
11:35 am 11:35 Sunny 53 11.7 35 1.8 51 51 SSW 12 19 30.24 1024 10 16.0934 0 0
11:55 am 11:55 Sunny 54 12.3 35 1.7 49 49 SW 10 17 30.24 1024 10 16.0934 0 0
12:15 pm 12:15 Sunny 55 12.7 37 2.5 50 50 SSW 7 11 30.21 1023 10 16.0934 0 0
12:35 pm 12:35 Sunny 55 12.8 36 2.4 49 49 SW 9 15 30.18 1022 10 16.0934 0 0
12:55 pm 12:55 Sunny 56 13.4 37 2.5 48 48 S 7 11 30.18 1022 10 16.0934 0 0
1:15 pm 13:15 Sunny 56 13.3 35 1.8 46 46 S 9 15 30.18 1022 10 16.0934 0 0
1:35 pm 13:35 Sunny 57 14 37 2.5 46 46 S 8 13 30.15 1021 10 16.0934 0 0
1:55 pm 13:55 Sunny 58 14.5 38 3.2 47 47 SSW 10 17 30.15 1021 10 16.0934 0 0
2:15 pm 14:15 Sunny 58 14.5 37 2.7 45 45 SW 13 20 30.12 1020 10 16.0934 0 0
2:35 pm 14:35 Sunny 58 14.2 37 2.5 45 45 SW 13 20 30.09 1019 10 16.0934 0 0
2:55 pm 14:55 Mostly Cloudy 57 13.9 37 2.8 47 47 SW 13 20 30.09 1019 10 16.0934 0 0
3:15 pm 15:15 Mostly Cloudy 57 13.7 37 2.7 48 48 SW 10 17 30.09 1019 10 16.0934 0 0
3:35 pm 15:35 Cloudy 56 13.5 38 3.2 50 50 SSW 10 17 30.06 1018 10 16.0934 0 0
3:55 pm 15:55 Cloudy 56 13.5 38 3.4 51 51 SSW 10 17 30.06 1018 10 16.0934 0 0
4:15 pm 16:15 Cloudy 56 13.5 39 3.7 52 52 S 12 19 30.03 1017 10 16.0934 0 0
4:35 pm 16:35 Cloudy 56 13.6 39 3.8 52 52 SSW 9 15 30.03 1017 10 16.0934 0 0
4:55 pm 16:55 Cloudy with Light Rain 56 13.4 40 4.6 56 56 SSW 10 17 30.03 1017 10 16.0934 0 0
5:15 pm 17:15 Cloudy 56 13.3 41 5.1 58 58 SSW 7 11 30.03 1017 10 16.0934 0 0
5:35 pm 17:35 Cloudy 56 13.3 41 5.2 58 58 SW 7 11 30.03 1017 10 16.0934 0 0
5:55 pm 17:55 Cloudy 56 13.3 41 4.8 57 57 SW 9 15 30.03 1017 10 16.0934 0 0
6:15 pm 18:15 Cloudy 55 13 41 5.1 59 59 SW 6 9 30 1016 10 16.0934 0 0
6:35 pm 18:35 Cloudy 55 12.7 42 5.8 63 63 WSW 3 6 30 1016 10 16.0934 0 0
6:55 pm 18:55 Cloudy 55 12.5 42 5.6 63 63 SSW 5 7 30 1016 10 16.0934 0 0
7:15 pm 19:15 Cloudy 54 12.1 43 6.3 68 68 WSW 6 9 30 1016 10 16.0934 0 0
7:35 pm 19:35 Cloudy 55 12.6 41 4.9 60 60 SW 9 15 30 1016 10 16.0934 0 0
7:55 pm 19:55 Cloudy 55 12.6 39 3.8 55 55 W 12 19 30 1016 10 16.0934 0 0
8:15 pm 20:15 Cloudy with Light Rain 52 11.2 40 4.7 65 65 W 14 22 30 1016 10 16.0934 0 0
8:35 pm 20:35 Cloudy 51 10.6 41 5 69 69 W 9 15 30 1016 10 16.0934 0 0
8:55 pm 20:55 Cloudy with Rain 49 9.3 44 6.4 82 82 W 8 13 30.03 1017 5 8.0467 0.01 0.254
9:15 pm 21:15 Cloudy with Light Rain 48 8.7 45 7.2 90 90 W 6 9 30.03 1017 10 16.0934 0.01 0.254
9:35 pm 21:35 Cloudy with Light Rain 47 8.6 46 7.5 93 93 SW 5 7 30 1016 7 11.26538 0.01 0.254
9:55 pm 21:55 Cloudy with Light Rain 47 8.5 46 7.6 94 94 SSW 7 11 30 1016 10 16.0934 0.02 0.508
10:15 pm 22:15 Cloudy 48 8.8 46 7.5 92 92 SW 8 13 30 1016 10 16.0934 0 0
10:35 pm 22:35 Cloudy 48 8.8 45 7.4 91 91 SW 9 15 30 1016 10 16.0934 0 0
10:55 pm 22:55 Cloudy 48 8.7 46 7.5 92 92 SSW 9 15 29.97 1015 10 16.0934 0 0
11:15 pm 23:15 Cloudy 48 8.7 46 7.6 93 93 SW 10 17 29.97 1015 10 16.0934 0 0
11:35 pm 23:35 Cloudy 48 8.7 46 7.6 93 93 SSW 9 15 29.97 1015 10 16.0934 0 0
11:55 pm 23:55 Cloudy 48 8.8 46 7.7 93 93 SSW 10 17 29.97 1015 10 16.0934 0 0

Powered by AerisWeather